Monroe, NC

8:32 AM EDT on March 25, 2017 (GMT -0400)
Monroe

Weather History for KEQY - August, 2013

Change the Weather History Date:

Thursday, August 29, 2013

  Actual Average (KCLT) Record (KCLT)
Temperature  
Mean Temperature 82 °F -  
Max Temperature 93 °F 86 °F 100 °F (1948)
Min Temperature 73 °F 66 °F 54 °F (1968)
Cooling Degree Days 17    
Growing Degree Days 32 (Base 50)    
Moisture  
Dew Point 71 °F    
Average Humidity 73    
Maximum Humidity 93    
Minimum Humidity 50    
Precipitation  
Precipitation 0.00 in - - ()
Sea Level Pressure  
Sea Level Pressure 29.93 in    
Wind  
Wind Speed 6 mph (NNW)    
Max Wind Speed 12 mph    
Max Gust Speed -    
Visibility 8 miles    
Events      
Averages and records for this station are not official NWS values.
T = Trace of Precipitation, MM = Missing Value Source: NWS Daily Summary

Daily Weather History Graph

Daily Weather History Graph

Search for Another Location

Airport or City:

Trip Planner

Search our weather history database for the weather conditions in past years. The results will help you decide how hot, cold, wet, or windy it might be!

Date:

Astronomy

Aug. 29, 2013 Rise Set
Actual Time 6:53 AM EDT 7:52 PM EDT
Civil Twilight 6:27 AM EDT 8:18 PM EDT
Nautical Twilight 5:56 AM EDT 8:49 PM EDT
Astronomical Twilight 5:24 AM EDT 9:21 PM EDT
Moon 12:50 AM EDT (8/29) 3:13 PM EDT (8/29)
Length of Visible Light 13h 51m
Length of Day
12h 59m
Last Quarter, 38% of the Moon is Illuminated
Aug 29
Last Quarter
Sep 5
New
Sep 12
First Quarter
Sep 19
Full
Sep 26
Last Quarter

Hourly Weather History & Observations

Time (EDT) Temp. Heat Index Dew Point Humidity Pressure Visibility Wind Dir Wind Speed Gust Speed Precip Events Conditions
12:53 AM 75.0 °F - 72.0 °F 90% 29.92 in 6.0 mi SW 6.9 mph - N/A   Clear
1:53 AM 75.0 °F - 71.1 °F 87% 29.92 in 6.0 mi WSW 5.8 mph - N/A   Clear
2:53 AM 73.0 °F - 71.1 °F 93% 29.92 in 6.0 mi WSW 5.8 mph - N/A   Clear
3:53 AM 73.9 °F - 71.1 °F 91% 29.91 in 5.0 mi WSW 5.8 mph - N/A   Clear
4:53 AM 73.9 °F - 71.1 °F 91% 29.91 in 6.0 mi WSW 6.9 mph - N/A   Mostly Cloudy
5:53 AM 73.9 °F - 71.1 °F 91% 29.91 in 6.0 mi WSW 3.5 mph - N/A   Overcast
6:53 AM 73.0 °F - 71.1 °F 93% 29.92 in 5.0 mi WSW 5.8 mph - N/A   Mostly Cloudy
7:53 AM 75.0 °F - 72.0 °F 90% 29.94 in 5.0 mi WSW 4.6 mph - N/A   Mostly Cloudy
8:53 AM 78.1 °F - 72.0 °F 81% 29.94 in 7.0 mi WNW 4.6 mph - N/A   Mostly Cloudy
9:53 AM 82.9 °F 88.0 °F 72.0 °F 69% 29.95 in 10.0 mi WNW 3.5 mph - N/A   Partly Cloudy
10:53 AM 86.0 °F 90.7 °F 70.0 °F 59% 29.95 in 10.0 mi NW 6.9 mph - N/A   Mostly Cloudy
11:53 AM 89.1 °F 93.7 °F 69.1 °F 52% 29.94 in 10.0 mi North 11.5 mph - N/A   Clear
12:53 PM 89.1 °F 92.9 °F 68.0 °F 50% 29.93 in 10.0 mi North 8.1 mph - N/A   Scattered Clouds
1:53 PM 90.0 °F 95.4 °F 70.0 °F 52% 29.93 in 10.0 mi North 9.2 mph - N/A   Scattered Clouds
2:53 PM 91.0 °F 96.6 °F 70.0 °F 50% 29.91 in 10.0 mi North 8.1 mph - N/A   Scattered Clouds
3:53 PM 90.0 °F 94.5 °F 69.1 °F 50% 29.90 in 10.0 mi North 4.6 mph - N/A   Partly Cloudy
4:53 PM 91.0 °F 97.6 °F 71.1 °F 52% 29.90 in 10.0 mi NE 9.2 mph - N/A   Scattered Clouds
5:53 PM 88.0 °F 94.7 °F 72.0 °F 59% 29.91 in 10.0 mi ENE 8.1 mph - N/A   Clear
6:53 PM 86.0 °F 93.0 °F 73.0 °F 65% 29.91 in 10.0 mi East 4.6 mph - N/A   Clear
7:53 PM 82.9 °F 88.0 °F 72.0 °F 69% 29.94 in 10.0 mi ENE 6.9 mph - N/A   Clear
8:53 PM 81.0 °F 84.9 °F 71.1 °F 72% 29.96 in 10.0 mi East 4.6 mph - N/A   Partly Cloudy
9:53 PM 79.0 °F - 71.1 °F 77% 29.97 in 10.0 mi ENE 4.6 mph - N/A   Clear
10:53 PM 78.1 °F - 71.1 °F 79% 29.98 in 10.0 mi ENE 6.9 mph - N/A   Clear
11:53 PM 77.0 °F - 71.1 °F 82% 29.99 in 10.0 mi ENE 4.6 mph - N/A   Mostly Cloudy